[TLELIST] Archives

 

[list_settings.list_name] Current TLEs

February 5th 2011 PST

HST 1 20580U 90037B 11034.69404264 .00000398 00000-0 17514-4 0 7099 2 20580 028.4688 168.3221 0003524 142.5554 217.5369 15.01150498939576 ISS (ZARYA) 1 25544U 98067A 11035.41027833 .00013479 00000-0 10375-3 0 7663 2 25544 051.6462 121.7354 0003433 273.3453 180.4593 15.72356548700002 CXO 1 25867U 99040B 11034.08333333 -.00000648 00000-0 00000+0 0 5663 2 25867 068.4410 040.4862 8484635 276.0290 353.7700 00.37806660 7267 ____________________________________________________________________ These 2-Line ...Continue Reading

[list_settings.list_name] Current TLEs

February 4th 2011 PST

HST 1 20580U 90037B 11032.56653249 .00000423 00000-0 19462-4 0 7084 2 20580 028.4690 182.2247 0003378 123.6925 236.4065 15.01149434939257 ISS (ZARYA) 1 25544U 98067A 11034.39235946 .00011317 00000-0 87994-4 0 7600 2 25544 051.6449 126.9470 0003624 263.1901 184.8666 15.72319950699844 CXO 1 25867U 99040B 11034.08333333 -.00000648 00000-0 00000+0 0 5663 2 25867 068.4410 040.4862 8484635 276.0290 353.7700 00.37806660 7267 ____________________________________________________________________ These 2-Line ...Continue Reading

[list_settings.list_name] Current TLEs

February 3rd 2011 PST

HST 1 20580U 90037B 11032.56653249 .00000423 00000-0 19462-4 0 7084 2 20580 028.4690 182.2247 0003378 123.6925 236.4065 15.01149434939257 ISS (ZARYA) 1 25544U 98067A 11033.37962287 .00010094 00000-0 79085-4 0 7548 2 25544 051.6451 132.1335 0003622 258.2968 213.4863 15.72290675699684 CXO 1 25867U 99040B 11034.08333333 -.00000648 00000-0 00000+0 0 5663 2 25867 068.4410 040.4862 8484635 276.0290 353.7700 00.37806660 7267 ____________________________________________________________________ These 2-Line ...Continue Reading

[list_settings.list_name] Current TLEs

February 2nd 2011 PST

HST 1 20580U 90037B 11029.84065417 .00000389 00000-0 16851-4 0 7074 2 20580 028.4688 200.0229 0003374 093.7254 266.3730 15.01147818938840 ISS (ZARYA) 1 25544U 98067A 11032.41426402 .00011141 00000-0 86865-4 0 7487 2 25544 051.6469 137.0770 0003662 251.6710 152.3108 15.72273184699539 CXO 1 25867U 99040B 11031.45833333 -.00000830 00000-0 00000+0 0 5658 2 25867 068.4254 040.6161 8482478 276.0133 356.4479 00.37806294 7251 ____________________________________________________________________ These 2-Line ...Continue Reading

[list_settings.list_name] Current TLEs

February 1st 2011 PST

HST 1 20580U 90037B 11029.84065417 .00000389 00000-0 16851-4 0 7074 2 20580 028.4688 200.0229 0003374 093.7254 266.3730 15.01147818938840 ISS (ZARYA) 1 25544U 98067A 11031.21220321 .00010443 00000-0 81814-4 0 7412 2 25544 051.6470 143.2320 0003626 249.5118 186.0701 15.72245930699349 CXO 1 25867U 99040B 11031.45833333 -.00000830 00000-0 00000+0 0 5658 2 25867 068.4254 040.6161 8482478 276.0133 356.4479 00.37806294 7251 ____________________________________________________________________ These 2-Line ...Continue Reading

[list_settings.list_name] Current TLEs

January 31st 2011 PST

HST 1 20580U 90037B 11029.84065417 .00000389 00000-0 16851-4 0 7074 2 20580 028.4688 200.0229 0003374 093.7254 266.3730 15.01147818938840 ISS (ZARYA) 1 25544U 98067A 11030.39139980 .00011514 00000-0 89908-4 0 7366 2 25544 051.6476 147.4307 0004043 231.1914 235.4803 15.72194570699212 CXO 1 25867U 99040B 11028.79166667 -.00000961 00000-0 00000+0 0 5644 2 25867 068.4095 040.7748 8479901 275.9844 353.4626 00.37810987 7244 ____________________________________________________________________ These 2-Line ...Continue Reading

[list_settings.list_name] Current TLEs

January 30th 2011 PST

HST 1 20580U 90037B 11026.64937645 .00000402 00000-0 17859-4 0 7064 2 20580 028.4692 220.8594 0003338 058.8207 301.2683 15.01146526938368 ISS (ZARYA) 1 25544U 98067A 11029.42703802 .00012494 00000-0 97107-4 0 7298 2 25544 051.6440 152.3789 0003453 242.7598 161.9602 15.72208921699061 CXO 1 25867U 99040B 11028.79166667 -.00000961 00000-0 00000+0 0 5644 2 25867 068.4095 040.7748 8479901 275.9844 353.4626 00.37810987 7244 ____________________________________________________________________ These 2-Line ...Continue Reading

[list_settings.list_name] Current TLEs

January 29th 2011 PST

HST 1 20580U 90037B 11026.64937645 .00000402 00000-0 17859-4 0 7064 2 20580 028.4692 220.8594 0003338 058.8207 301.2683 15.01146526938368 ISS (ZARYA) 1 25544U 98067A 11028.40981597 .00011552 00000-0 90207-4 0 7225 2 25544 051.6440 157.5849 0003689 238.6299 164.8431 15.72191350698909 CXO 1 25867U 99040B 11028.79166667 -.00000961 00000-0 00000+0 0 5644 2 25867 068.4095 040.7748 8479901 275.9844 353.4626 00.37810987 7244 ____________________________________________________________________ These 2-Line ...Continue Reading

[list_settings.list_name] Current TLEs

January 28th 2011 PST

HST 1 20580U 90037B 11026.64937645 .00000402 00000-0 17859-4 0 7064 2 20580 028.4692 220.8594 0003338 058.8207 301.2683 15.01146526938368 ISS (ZARYA) 1 25544U 98067A 11027.39419503 .00012356 00000-0 96244-4 0 7180 2 25544 051.6439 162.7869 0003729 235.0835 176.2701 15.72169563698749 CXO 1 25867U 99040B 11026.16666667 -.00000834 00000-0 00000+0 0 5636 2 25867 068.3928 040.9447 8474192 275.9566 356.1508 00.37811607 7232 ____________________________________________________________________ These 2-Line ...Continue Reading

[list_settings.list_name] Current TLEs

January 27th 2011 PST

HST 1 20580U 90037B 11023.98997569 .00000456 00000-0 21999-4 0 7057 2 20580 028.4695 238.2252 0003350 030.0417 330.0366 15.01145687937964 ISS (ZARYA) 1 25544U 98067A 11026.00490900 .00012714 00000-0 99043-4 0 7129 2 25544 051.6438 169.9030 0003745 230.4877 232.5670 15.72134285698520 CXO 1 25867U 99040B 11026.16666667 -.00000834 00000-0 00000+0 0 5636 2 25867 068.3928 040.9447 8474192 275.9566 356.1508 00.37811607 7232 ____________________________________________________________________ These 2-Line ...Continue Reading
  • This mailing list is a public mailing list - anyone may join or leave, at any time.
  • This mailing list is announce-only.

International Space Station (ISS) / Hubble Space Telescope (HST) / Chandra X-Ray Observatory Orbital Data via EMAIL

Privacy Policy:

Private list